Location: Danville Conservation Area
(38.8674°N, 91.5143°W)
Time: 00:35:09
(UTC-06:00)

Envisat - Pass Details

Date: 02 December 2021
Orbit: 764 x 766 km, 98.2° (Epoch: 23 January)

Event Time Altitude Azimuth Distance (km) Brightness Sun altitude
Rises 05:48:11 0° 3° (N) 3,240 6.1 -15.0°
Reaches altitude 10° 05:50:39 10° 355° (N) 2,310 5.3 -14.5°
Maximum altitude 05:55:16 36° 290° (WNW) 1,191 3.5 -13.7°
Drops below altitude 10° 05:59:52 10° 225° (SW) 2,295 5.2 -12.8°
Sets 06:02:18 0° 217° (SW) 3,216 6.0 -12.4°
